| time (UTC) | temp F | wind direction | speed MPH | gust MPH | rain 1hr in | rain 24hr in | rain mn in | humidity % | barometer mb |
| 20260906210537 | 86 | 103 | 23.0 | 34.0 | 0.00 | 0.00 | 0.00 | 40 | 1016.5 |
| 20260906210037 | 86 | 98 | 22.0 | 34.0 | 0.00 | 0.00 | 0.00 | 40 | 1016.6 |
| 20260906205806 | 86 | 72 | 22.0 | 32.0 | 0.00 | 0.00 | 0.00 | 40 | 1016.7 |
| 20260906205036 | 86 | 52 | 21.0 | 30.0 | 0.00 | 0.00 | 0.00 | 39 | 1016.8 |
| 20260906204535 | 86 | 49 | 20.0 | 28.0 | 0.00 | 0.00 | 0.00 | 40 | 1016.8 |
| 20260906204029 | 86 | 67 | 20.0 | 27.0 | 0.00 | 0.00 | 0.00 | 39 | 1017.0 |
| 20260906203529 | 86 | 57 | 20.0 | 30.0 | 0.00 | 0.00 | 0.00 | 40 | 1017.1 |
| 20260906203301 | 87 | 59 | 17.0 | 30.0 | 0.00 | 0.00 | 0.00 | 39 | 1017.0 |
| 20260906202530 | 87 | 57 | 16.0 | 23.0 | 0.00 | 0.00 | 0.00 | 39 | 1017.1 |
| 20260906202029 | 87 | 64 | 17.0 | 25.0 | 0.00 | 0.00 | 0.00 | 38 | 1017.0 |
| 20260906201531 | 87 | 74 | 15.0 | 25.0 | 0.00 | 0.00 | 0.00 | 38 | 1017.2 |
| 20260906201023 | 88 | 78 | 14.0 | 20.0 | 0.00 | 0.00 | 0.00 | 38 | 1017.2 |
| 20260906200524 | 88 | 80 | 16.0 | 24.0 | 0.00 | 0.00 | 0.00 | 37 | 1017.2 |
| 20260906200023 | 88 | 24 | 15.0 | 24.0 | 0.00 | 0.00 | 0.00 | 38 | 1017.2 |
| 20260906195523 | 88 | 65 | 12.0 | 20.0 | 0.00 | 0.00 | 0.00 | 37 | 1017.3 |
| 20260906195023 | 89 | 74 | 10.0 | 17.0 | 0.00 | 0.00 | 0.00 | 37 | 1017.4 |
| 20260906194522 | 88 | 59 | 10.0 | 16.0 | 0.00 | 0.00 | 0.00 | 38 | 1017.4 |
| 20260906194017 | 87 | 63 | 11.0 | 16.0 | 0.00 | 0.00 | 0.00 | 38 | 1017.4 |
| 20260906193517 | 87 | 27 | 9.0 | 16.0 | 0.00 | 0.00 | 0.00 | 38 | 1017.6 |
| 20260906193024 | 87 | 355 | 9.0 | 15.0 | 0.00 | 0.00 | 0.00 | 38 | 1017.5 |
| 20260906192517 | 87 | 332 | 10.0 | 15.0 | 0.00 | 0.00 | 0.00 | 38 | 1017.5 |
| 20260906192017 | 87 | 347 | 7.0 | 13.0 | 0.00 | 0.00 | 0.00 | 38 | 1017.8 |
| 20260906191516 | 86 | 35 | 7.0 | 16.0 | 0.00 | 0.00 | 0.00 | 39 | 1017.9 |
| 20260906191015 | 86 | 24 | 10.0 | 16.0 | 0.00 | 0.00 | 0.00 | 39 | 1017.9 |
| 20260906190513 | 86 | 61 | 7.0 | 16.0 | 0.00 | 0.00 | 0.00 | 39 | 1018.0 |
| 20260906190011 | 85 | 43 | 7.0 | 16.0 | 0.00 | 0.00 | 0.00 | 39 | 1018.1 |
| 20260906185511 | 85 | 18 | 9.0 | 15.0 | 0.00 | 0.00 | 0.00 | 40 | 1018.1 |
| 20260906184514 | 85 | 350 | 8.0 | 13.0 | 0.00 | 0.00 | 0.00 | 41 | 1018.2 |
| 20260906184239 | 85 | 344 | 8.0 | 12.0 | 0.00 | 0.00 | 0.00 | 40 | 1018.3 |
| 20260906183507 | 85 | 314 | 7.0 | 12.0 | 0.00 | 0.00 | 0.00 | 41 | 1018.3 |
| 20260906183007 | 85 | 355 | 7.0 | 13.0 | 0.00 | 0.00 | 0.00 | 41 | 1018.4 |
| 20260906182005 | 84 | 325 | 6.0 | 12.0 | 0.00 | 0.00 | 0.00 | 42 | 1018.6 |
| 20260906181505 | 84 | 302 | 5.0 | 11.0 | 0.00 | 0.00 | 0.00 | 41 | 1018.4 |
| 20260906181004 | 84 | 310 | 5.0 | 11.0 | 0.00 | 0.00 | 0.00 | 42 | 1018.6 |
| 20260906180501 | 84 | 65 | 6.0 | 10.0 | 0.00 | 0.00 | 0.00 | 42 | 1018.6 |
| 20260906180001 | 83 | 59 | 7.0 | 12.0 | 0.00 | 0.00 | 0.00 | 43 | 1018.7 |
| 20260906175459 | 84 | 5 | 6.0 | 12.0 | 0.00 | 0.00 | 0.00 | 43 | 1018.7 |
| 20260906174959 | 84 | 332 | 6.0 | 11.0 | 0.00 | 0.00 | 0.00 | 42 | 1018.7 |
| 20260906174458 | 84 | 15 | 6.0 | 11.0 | 0.00 | 0.00 | 0.00 | 43 | 1018.8 |
| 20260906173955 | 83 | 345 | 6.0 | 13.0 | 0.00 | 0.00 | 0.00 | 44 | 1018.9 |
| 20260906172952 | 83 | 35 | 8.0 | 13.0 | 0.00 | 0.00 | 0.00 | 44 | 1019.2 |
| 20260906172453 | 82 | 44 | 7.0 | 13.0 | 0.00 | 0.00 | 0.00 | 45 | 1019.2 |
| 20260906171952 | 82 | 9 | 8.0 | 12.0 | 0.00 | 0.00 | 0.00 | 45 | 1019.2 |
| 20260906170946 | 81 | 355 | 7.0 | 14.0 | 0.00 | 0.00 | 0.00 | 46 | 1019.2 |
| 20260906170445 | 81 | 340 | 6.0 | 12.0 | 0.00 | 0.00 | 0.00 | 46 | 1019.2 |
| 20260906165943 | 81 | 315 | 7.0 | 12.0 | 0.00 | 0.00 | 0.00 | 46 | 1019.1 |
| 20260906165443 | 80 | 72 | 7.0 | 12.0 | 0.00 | 0.00 | 0.00 | 46 | 1019.2 |
| 20260906164943 | 81 | 28 | 7.0 | 11.0 | 0.00 | 0.00 | 0.00 | 46 | 1019.5 |
| 20260906164442 | 81 | 348 | 7.0 | 13.0 | 0.00 | 0.00 | 0.00 | 46 | 1019.2 |
| 20260906163941 | 81 | 355 | 7.0 | 13.0 | 0.00 | 0.00 | 0.00 | 47 | 1019.4 |
| 20260906163440 | 80 | 5 | 7.0 | 12.0 | 0.00 | 0.00 | 0.00 | 47 | 1019.4 |
| 20260906162941 | 81 | 24 | 7.0 | 12.0 | 0.00 | 0.00 | 0.00 | 46 | 1019.5 |
| 20260906162441 | 80 | 309 | 6.0 | 9.0 | 0.00 | 0.00 | 0.00 | 47 | 1019.5 |
| 20260906161940 | 80 | 0 | 7.0 | 12.0 | 0.00 | 0.00 | 0.00 | 47 | 1019.6 |
| 20260906161712 | 80 | 0 | 9.0 | 12.0 | 0.00 | 0.00 | 0.00 | 48 | 1019.5 |
| 20260906161214 | 80 | 0 | 8.0 | 12.0 | 0.00 | 0.00 | 0.00 | 48 | 1019.4 |
| 20260906160443 | 81 | 344 | 6.0 | 11.0 | 0.00 | 0.00 | 0.00 | 47 | 1019.5 |
| 20260906160209 | 81 | 348 | 6.0 | 11.0 | 0.00 | 0.00 | 0.00 | 47 | 1019.6 |
| 20260906154924 | 80 | 312 | 7.0 | 12.0 | 0.00 | 0.00 | 0.00 | 48 | 1019.6 |
| 20260906154419 | 80 | 340 | 7.0 | 12.0 | 0.00 | 0.00 | 0.00 | 48 | 1019.5 |
| 20260906154146 | 80 | 57 | 7.0 | 11.0 | 0.00 | 0.00 | 0.00 | 49 | 1019.4 |
| 20260906153414 | 79 | 33 | 8.0 | 11.0 | 0.00 | 0.00 | 0.00 | 49 | 1019.4 |
| 20260906153148 | 79 | 19 | 8.0 | 11.0 | 0.00 | 0.00 | 0.00 | 49 | 1019.4 |
| 20260906152414 | 80 | 5 | 8.0 | 12.0 | 0.00 | 0.00 | 0.00 | 48 | 1019.2 |
| 20260906151916 | 80 | 36 | 6.0 | 12.0 | 0.00 | 0.00 | 0.00 | 48 | 1019.0 |
| 20260906151414 | 80 | 49 | 5.0 | 9.0 | 0.00 | 0.00 | 0.00 | 47 | 1019.0 |
| 20260906150411 | 79 | 42 | 5.0 | 10.0 | 0.00 | 0.00 | 0.00 | 49 | 1019.2 |
| 20260906145410 | 78 | 28 | 6.0 | 10.0 | 0.00 | 0.00 | 0.00 | 49 | 1019.5 |
| 20260906144911 | 78 | 32 | 6.0 | 10.0 | 0.00 | 0.00 | 0.00 | 50 | 1019.5 |
| 20260906144642 | 78 | 36 | 6.0 | 10.0 | 0.00 | 0.00 | 0.00 | 50 | 1019.5 |
| 20260906143906 | 78 | 71 | 6.0 | 10.0 | 0.00 | 0.00 | 0.00 | 49 | 1019.5 |
| 20260906142906 | 77 | 70 | 6.0 | 10.0 | 0.00 | 0.00 | 0.00 | 50 | 1019.2 |
| 20260906142405 | 77 | 53 | 6.0 | 9.0 | 0.00 | 0.00 | 0.00 | 50 | 1019.4 |
| 20260906141905 | 76 | 40 | 6.0 | 9.0 | 0.00 | 0.00 | 0.00 | 51 | 1019.5 |
| 20260906141402 | 76 | 69 | 6.0 | 9.0 | 0.00 | 0.00 | 0.00 | 52 | 1019.2 |
| 20260906140902 | 76 | 49 | 7.0 | 10.0 | 0.00 | 0.00 | 0.00 | 52 | 1019.2 |
| 20260906140402 | 75 | 47 | 7.0 | 10.0 | 0.00 | 0.00 | 0.00 | 52 | 1019.4 |
| 20260906135903 | 76 | 45 | 7.0 | 11.0 | 0.00 | 0.00 | 0.00 | 52 | 1019.4 |
| 20260906135401 | 75 | 66 | 8.0 | 11.0 | 0.00 | 0.00 | 0.00 | 53 | 1019.4 |
| 20260906134902 | 75 | 40 | 8.0 | 11.0 | 0.00 | 0.00 | 0.00 | 53 | 1019.2 |
| 20260906134358 | 75 | 51 | 7.0 | 11.0 | 0.00 | 0.00 | 0.00 | 53 | 1019.4 |
| 20260906134136 | 75 | 51 | 5.0 | 9.0 | 0.00 | 0.00 | 0.00 | 54 | 1019.5 |
| 20260906133629 | 75 | 90 | 6.0 | 9.0 | 0.00 | 0.00 | 0.00 | 53 | 1019.2 |
| 20260906132856 | 75 | 38 | 5.0 | 9.0 | 0.00 | 0.00 | 0.00 | 55 | 1019.2 |
| 20260906132355 | 76 | 13 | 3.0 | 8.0 | 0.00 | 0.00 | 0.00 | 54 | 1019.4 |
| 20260906131853 | 76 | 191 | 2.0 | 5.0 | 0.00 | 0.00 | 0.00 | 54 | 1019.4 |
| 20260906131348 | 76 | 191 | 1.0 | 4.0 | 0.00 | 0.00 | 0.00 | 53 | 1019.4 |
| 20260906130848 | 76 | 191 | 0.0 | 2.0 | 0.00 | 0.00 | 0.00 | 54 | 1019.2 |
| 20260906130351 | 75 | 191 | 0.0 | 2.0 | 0.00 | 0.00 | 0.00 | 55 | 1019.2 |
| 20260906130120 | 74 | 191 | 0.0 | 1.0 | 0.00 | 0.00 | 0.00 | 55 | 1019.2 |
| 20260906125348 | 74 | 191 | 0.0 | 2.0 | 0.00 | 0.00 | 0.00 | 56 | 1019.1 |
| 20260906124848 | 74 | 191 | 0.0 | 2.0 | 0.00 | 0.00 | 0.00 | 56 | 1019.1 |
| 20260906124346 | 73 | 191 | 0.0 | 3.0 | 0.00 | 0.00 | 0.00 | 57 | 1019.1 |
| 20260906123844 | 73 | 191 | 2.0 | 4.0 | 0.00 | 0.00 | 0.00 | 57 | 1019.1 |
| 20260906123342 | 73 | 191 | 3.0 | 5.0 | 0.00 | 0.00 | 0.00 | 57 | 1019.1 |
| 20260906122843 | 72 | 191 | 4.0 | 5.0 | 0.00 | 0.00 | 0.00 | 58 | 1019.1 |
| 20260906122343 | 72 | 191 | 4.0 | 7.0 | 0.00 | 0.00 | 0.00 | 59 | 1019.1 |
| 20260906121844 | 72 | 238 | 4.0 | 7.0 | 0.00 | 0.00 | 0.00 | 59 | 1018.9 |
| 20260906121336 | 72 | 190 | 3.0 | 6.0 | 0.00 | 0.00 | 0.00 | 59 | 1018.9 |
| 20260906120834 | 72 | 44 | 3.0 | 5.0 | 0.00 | 0.00 | 0.00 | 58 | 1019.0 |
| 20260906120332 | 73 | 44 | 3.0 | 4.0 | 0.00 | 0.00 | 0.00 | 57 | 1018.8 |
| 20260906115830 | 73 | 44 | 2.0 | 5.0 | 0.00 | 0.00 | 0.00 | 56 | 1018.9 |
| 20260906115332 | 73 | 44 | 2.0 | 5.0 | 0.00 | 0.00 | 0.00 | 55 | 1018.8 |
| 20260906114826 | 73 | 44 | 2.0 | 4.0 | 0.00 | 0.00 | 0.00 | 55 | 1018.9 |
| 20260906114557 | 73 | 44 | 3.0 | 4.0 | 0.00 | 0.00 | 0.00 | 55 | 1018.8 |
| 20260906113824 | 73 | 44 | 2.0 | 3.0 | 0.00 | 0.00 | 0.00 | 56 | 1018.8 |
| 20260906113325 | 73 | 44 | 1.0 | 2.0 | 0.00 | 0.00 | 0.00 | 56 | 1018.8 |
| 20260906112824 | 73 | 44 | 2.0 | 3.0 | 0.00 | 0.00 | 0.00 | 56 | 1018.7 |
| 20260906112555 | 73 | 44 | 2.0 | 4.0 | 0.00 | 0.00 | 0.00 | 54 | 1018.8 |
| 20260906111820 | 74 | 44 | 2.0 | 4.0 | 0.00 | 0.00 | 0.00 | 55 | 1018.8 |
| 20260906111321 | 74 | 44 | 3.0 | 4.0 | 0.00 | 0.00 | 0.00 | 53 | 1018.8 |
| 20260906110821 | 74 | 44 | 4.0 | 4.0 | 0.00 | 0.00 | 0.00 | 54 | 1018.9 |
| 20260906110549 | 74 | 44 | 4.0 | 5.0 | 0.00 | 0.00 | 0.00 | 54 | 1019.0 |
| 20260906105818 | 75 | 44 | 4.0 | 5.0 | 0.00 | 0.00 | 0.00 | 54 | 1018.9 |
| 20260906105318 | 75 | 44 | 5.0 | 5.0 | 0.00 | 0.00 | 0.00 | 56 | 1018.8 |
| 20260906104816 | 74 | 44 | 4.0 | 5.0 | 0.00 | 0.00 | 0.00 | 57 | 1018.9 |
| 20260906104316 | 74 | 44 | 4.0 | 5.0 | 0.00 | 0.00 | 0.00 | 56 | 1018.9 |
| 20260906103816 | 75 | 44 | 4.0 | 5.0 | 0.00 | 0.00 | 0.00 | 56 | 1018.9 |
| 20260906103314 | 74 | 44 | 4.0 | 5.0 | 0.00 | 0.00 | 0.00 | 56 | 1018.9 |
| 20260906102812 | 74 | 44 | 5.0 | 6.0 | 0.00 | 0.00 | 0.00 | 55 | 1018.9 |
| 20260906102546 | 74 | 44 | 5.0 | 7.0 | 0.00 | 0.00 | 0.00 | 56 | 1018.8 |
| 20260906101810 | 74 | 21 | 5.0 | 7.0 | 0.00 | 0.00 | 0.00 | 56 | 1018.8 |
| 20260906101310 | 74 | 21 | 4.0 | 5.0 | 0.00 | 0.00 | 0.00 | 56 | 1018.8 |
| 20260906100809 | 74 | 21 | 4.0 | 7.0 | 0.00 | 0.00 | 0.00 | 57 | 1018.7 |
| 20260906100308 | 74 | 21 | 4.0 | 7.0 | 0.00 | 0.00 | 0.00 | 58 | 1018.9 |
| 20260906100038 | 74 | 21 | 4.0 | 7.0 | 0.00 | 0.00 | 0.00 | 58 | 1018.9 |
| 20260906095307 | 74 | 21 | 4.0 | 6.0 | 0.00 | 0.00 | 0.00 | 59 | 1018.8 |
| 20260906094800 | 74 | 21 | 4.0 | 6.0 | 0.00 | 0.00 | 0.00 | 59 | 1018.8 |
| 20260906094529 | 74 | 355 | 4.0 | 6.0 | 0.00 | 0.00 | 0.00 | 59 | 1018.8 |
| 20260906093758 | 74 | 355 | 4.0 | 6.0 | 0.00 | 0.00 | 0.00 | 58 | 1018.7 |
| 20260906093257 | 74 | 355 | 3.0 | 5.0 | 0.00 | 0.00 | 0.00 | 57 | 1018.8 |
| 20260906092758 | 74 | 355 | 3.0 | 5.0 | 0.00 | 0.00 | 0.00 | 58 | 1018.6 |
| 20260906092258 | 74 | 355 | 3.0 | 5.0 | 0.00 | 0.00 | 0.00 | 58 | 1018.7 |
| 20260906091754 | 74 | 355 | 3.0 | 5.0 | 0.00 | 0.00 | 0.00 | 56 | 1018.7 |
| 20260906091253 | 74 | 355 | 3.0 | 4.0 | 0.00 | 0.00 | 0.00 | 56 | 1018.6 |
| 20260906090754 | 74 | 355 | 3.0 | 5.0 | 0.00 | 0.00 | 0.00 | 57 | 1018.6 |
| 20260906090524 | 74 | 355 | 4.0 | 5.0 | 0.00 | 0.00 | 0.00 | 56 | 1018.7 |
| 20260906090021 | 75 | 355 | 4.0 | 5.0 | 0.00 | 0.00 | 0.00 | 56 | 1018.7 |
| 20260906085250 | 76 | 346 | 3.0 | 5.0 | 0.00 | 0.00 | 0.00 | 55 | 1018.8 |
| 20260906084744 | 76 | 0 | 2.0 | 6.0 | 0.00 | 0.00 | 0.00 | 55 | 1018.9 |
| 20260906084244 | 75 | 46 | 3.0 | 6.0 | 0.00 | 0.00 | 0.00 | 55 | 1018.9 |
| 20260906083738 | 76 | 31 | 3.0 | 6.0 | 0.00 | 0.00 | 0.00 | 55 | 1018.9 |
| 20260906083236 | 76 | 283 | 2.0 | 4.0 | 0.00 | 0.00 | 0.00 | 55 | 1018.9 |
| 20260906082735 | 76 | 283 | 3.0 | 7.0 | 0.00 | 0.00 | 0.00 | 54 | 1018.8 |
| 20260906082236 | 76 | 283 | 4.0 | 7.0 | 0.00 | 0.00 | 0.00 | 55 | 1018.8 |
| 20260906081736 | 75 | 276 | 2.0 | 7.0 | 0.00 | 0.00 | 0.00 | 55 | 1018.8 |
| 20260906081236 | 76 | 38 | 1.0 | 4.0 | 0.00 | 0.00 | 0.00 | 55 | 1019.0 |
| 20260906080736 | 75 | 38 | 2.0 | 6.0 | 0.00 | 0.00 | 0.00 | 55 | 1018.7 |
| 20260906080232 | 75 | 38 | 2.0 | 6.0 | 0.00 | 0.00 | 0.00 | 56 | 1018.9 |
| 20260906075732 | 75 | 121 | 2.0 | 6.0 | 0.00 | 0.00 | 0.00 | 56 | 1018.9 |
| 20260906075231 | 75 | 121 | 4.0 | 9.0 | 0.00 | 0.00 | 0.00 | 55 | 1018.9 |
| 20260906074732 | 75 | 121 | 8.0 | 11.0 | 0.00 | 0.00 | 0.00 | 55 | 1018.9 |
| 20260906074231 | 75 | 34 | 7.0 | 11.0 | 0.00 | 0.00 | 0.00 | 57 | 1018.9 |
| 20260906073731 | 76 | 12 | 5.0 | 11.0 | 0.00 | 0.00 | 0.00 | 55 | 1018.9 |
| 20260906073228 | 78 | 82 | 6.0 | 18.0 | 0.00 | 0.00 | 0.00 | 51 | 1018.7 |
| 20260906072728 | 78 | 165 | 8.0 | 19.0 | 0.00 | 0.00 | 0.00 | 51 | 1018.3 |
| 20260906072228 | 77 | 174 | 7.0 | 19.0 | 0.00 | 0.00 | 0.00 | 53 | 1018.3 |
| 20260906071727 | 77 | 189 | 5.0 | 10.0 | 0.00 | 0.00 | 0.00 | 54 | 1018.6 |
| 20260906071227 | 77 | 199 | 5.0 | 15.0 | 0.00 | 0.00 | 0.00 | 54 | 1018.6 |
| 20260906070728 | 77 | 181 | 7.0 | 15.0 | 0.00 | 0.00 | 0.00 | 54 | 1018.7 |
| 20260906070221 | 78 | 186 | 8.0 | 20.0 | 0.00 | 0.00 | 0.00 | 54 | 1018.7 |
| 20260906065720 | 77 | 167 | 8.0 | 20.0 | 0.00 | 0.00 | 0.00 | 54 | 1018.6 |
| 20260906065219 | 77 | 219 | 7.0 | 18.0 | 0.00 | 0.00 | 0.00 | 56 | 1018.7 |
| 20260906064720 | 77 | 178 | 10.0 | 24.0 | 0.00 | 0.00 | 0.00 | 57 | 1018.9 |
| 20260906064220 | 77 | 188 | 11.0 | 33.0 | 0.00 | 0.00 | 0.00 | 57 | 1018.7 |
| 20260906063718 | 77 | 197 | 8.0 | 33.0 | 0.00 | 0.00 | 0.00 | 57 | 1018.6 |
| 20260906063217 | 77 | 125 | 5.0 | 16.0 | 0.00 | 0.00 | 0.00 | 58 | 1018.6 |
| 20260906062715 | 77 | 130 | 4.0 | 9.0 | 0.00 | 0.00 | 0.00 | 57 | 1018.6 |
| 20260906062211 | 77 | 225 | 5.0 | 15.0 | 0.00 | 0.00 | 0.00 | 56 | 1018.7 |
| 20260906061711 | 77 | 177 | 7.0 | 18.0 | 0.00 | 0.00 | 0.00 | 54 | 1018.7 |
| 20260906061442 | 77 | 173 | 6.0 | 18.0 | 0.00 | 0.00 | 0.00 | 54 | 1018.7 |
| 20260906060711 | 77 | 197 | 4.0 | 14.0 | 0.00 | 0.00 | 0.00 | 53 | 1018.7 |
| 20260906060441 | 77 | 141 | 5.0 | 14.0 | 0.00 | 0.00 | 0.00 | 53 | 1018.8 |
| 20260906055710 | 77 | 105 | 6.0 | 13.0 | 0.00 | 0.00 | 0.00 | 53 | 1018.9 |
| 20260906055208 | 77 | 132 | 8.0 | 13.0 | 0.00 | 0.00 | 0.00 | 54 | 1019.0 |
| 20260906054708 | 76 | 116 | 9.0 | 12.0 | 0.00 | 0.00 | 0.00 | 53 | 1019.1 |
| 20260906054208 | 76 | 90 | 9.0 | 12.0 | 0.00 | 0.00 | 0.00 | 51 | 1019.2 |
| 20260906053707 | 76 | 78 | 9.0 | 12.0 | 0.00 | 0.00 | 0.00 | 51 | 1019.2 |
| 20260906053204 | 76 | 80 | 8.0 | 12.0 | 0.00 | 0.00 | 0.00 | 51 | 1019.4 |
| 20260906052706 | 76 | 80 | 7.0 | 10.0 | 0.00 | 0.00 | 0.00 | 51 | 1019.4 |
| 20260906052158 | 76 | 107 | 7.0 | 10.0 | 0.00 | 0.00 | 0.00 | 50 | 1019.2 |
| 20260906051658 | 76 | 118 | 6.0 | 10.0 | 0.00 | 0.00 | 0.00 | 50 | 1019.2 |
| 20260906051430 | 76 | 139 | 6.0 | 12.0 | 0.00 | 0.00 | 0.00 | 50 | 1019.1 |
| 20260906050930 | 76 | 115 | 7.0 | 12.0 | 0.00 | 0.00 | 0.00 | 51 | 1019.1 |
| 20260906050158 | 75 | 73 | 8.0 | 11.0 | 0.00 | 0.00 | 0.00 | 51 | 1019.4 |
| 20260906045929 | 76 | 65 | 8.0 | 11.0 | 0.00 | 0.00 | 0.00 | 50 | 1019.4 |
| 20260906044652 | 76 | 59 | 8.0 | 14.0 | 0.00 | 0.00 | 0.00 | 48 | 1019.4 |
| 20260906044155 | 77 | 51 | 6.0 | 10.0 | 0.00 | 0.00 | 0.00 | 47 | 1019.5 |
| 20260906043652 | 78 | 67 | 6.0 | 9.0 | 0.00 | 0.00 | 0.00 | 48 | 1019.5 |
| 20260906043151 | 78 | 67 | 5.0 | 9.0 | 0.00 | 0.00 | 0.00 | 48 | 1019.5 |
| 20260906042653 | 78 | 71 | 6.0 | 11.0 | 0.00 | 0.00 | 0.00 | 48 | 1019.5 |
| 20260906042148 | 79 | 101 | 8.0 | 12.0 | 0.00 | 0.00 | 0.00 | 48 | 1019.1 |
| 20260906041647 | 79 | 119 | 9.0 | 13.0 | 0.00 | 0.00 | 0.00 | 47 | 1019.2 |
| 20260906041149 | 79 | 99 | 8.0 | 13.0 | 0.00 | 0.00 | 0.00 | 47 | 1019.2 |
| 20260906040148 | 79 | 87 | 10.0 | 14.0 | 0.00 | 0.00 | 0.00 | 46 | 1019.4 |
| 20260906035647 | 79 | 120 | 10.0 | 14.0 | 0.00 | 0.00 | 0.00 | 46 | 1019.2 |
| 20260906035148 | 79 | 114 | 9.0 | 18.0 | 0.00 | 0.00 | 0.00 | 45 | 1019.2 |
| 20260906034644 | 80 | 130 | 10.0 | 18.0 | 0.00 | 0.00 | 0.00 | 44 | 1019.2 |
| 20260906034414 | 80 | 153 | 12.0 | 19.0 | 0.00 | 0.00 | 0.00 | 44 | 1019.2 |
| 20260906033643 | 80 | 116 | 14.0 | 23.0 | 0.00 | 0.00 | 0.00 | 43 | 1019.2 |
| 20260906033414 | 80 | 118 | 14.0 | 23.0 | 0.00 | 0.00 | 0.00 | 43 | 1019.4 |
| 20260906032644 | 80 | 107 | 13.0 | 18.0 | 0.00 | 0.00 | 0.00 | 43 | 1019.4 |
| 20260906032416 | 80 | 103 | 13.0 | 19.0 | 0.00 | 0.00 | 0.00 | 43 | 1019.4 |
| 20260906031643 | 79 | 134 | 12.0 | 19.0 | 0.00 | 0.00 | 0.00 | 43 | 1019.4 |
| 20260906031140 | 79 | 105 | 10.0 | 15.0 | 0.00 | 0.00 | 0.00 | 43 | 1019.1 |
| 20260906030639 | 79 | 103 | 10.0 | 20.0 | 0.00 | 0.00 | 0.00 | 42 | 1019.1 |
| 20260906030410 | 79 | 109 | 10.0 | 20.0 | 0.00 | 0.00 | 0.00 | 42 | 1019.0 |
| 20260906025640 | 79 | 111 | 8.0 | 15.0 | 0.00 | 0.00 | 0.00 | 42 | 1019.0 |
| 20260906025133 | 79 | 107 | 8.0 | 16.0 | 0.00 | 0.00 | 0.00 | 42 | 1018.9 |
| 20260906024630 | 80 | 124 | 9.0 | 18.0 | 0.00 | 0.00 | 0.00 | 41 | 1018.8 |
| 20260906024402 | 79 | 126 | 9.0 | 18.0 | 0.00 | 0.00 | 0.00 | 40 | 1018.8 |
| 20260906023629 | 80 | 119 | 8.0 | 16.0 | 0.00 | 0.00 | 0.00 | 40 | 1018.7 |
| 20260906023130 | 80 | 105 | 9.0 | 16.0 | 0.00 | 0.00 | 0.00 | 39 | 1018.6 |
| 20260906022901 | 80 | 128 | 9.0 | 17.0 | 0.00 | 0.00 | 0.00 | 39 | 1018.6 |
| 20260906022401 | 80 | 155 | 9.0 | 17.0 | 0.00 | 0.00 | 0.00 | 39 | 1018.6 |
| 20260906021626 | 80 | 113 | 8.0 | 15.0 | 0.00 | 0.00 | 0.00 | 38 | 1018.6 |
| 20260906021125 | 80 | 108 | 8.0 | 15.0 | 0.00 | 0.00 | 0.00 | 38 | 1018.4 |
| 20260906020856 | 80 | 118 | 7.0 | 13.0 | 0.00 | 0.00 | 0.00 | 37 | 1018.4 |
| 20260906020126 | 81 | 137 | 7.0 | 17.0 | 0.00 | 0.00 | 0.00 | 36 | 1018.4 |
| 20260906015628 | 81 | 171 | 8.0 | 17.0 | 0.00 | 0.00 | 0.00 | 36 | 1018.6 |
| 20260906015129 | 81 | 142 | 10.0 | 17.0 | 0.00 | 0.00 | 0.00 | 36 | 1018.4 |
| 20260906014623 | 81 | 112 | 10.0 | 17.0 | 0.00 | 0.00 | 0.00 | 35 | 1018.6 |
| 20260906014122 | 81 | 100 | 9.0 | 19.0 | 0.00 | 0.00 | 0.00 | 35 | 1018.6 |
| 20260906013621 | 82 | 121 | 9.0 | 19.0 | 0.00 | 0.00 | 0.00 | 35 | 1018.4 |
| 20260906013119 | 82 | 124 | 10.0 | 19.0 | 0.00 | 0.00 | 0.00 | 35 | 1018.4 |
| 20260906012350 | 82 | 105 | 12.0 | 20.0 | 0.00 | 0.00 | 0.00 | 35 | 1018.6 |
| 20260906011854 | 83 | 112 | 12.0 | 21.0 | 0.00 | 0.00 | 0.00 | 35 | 1018.6 |
| 20260906011119 | 83 | 110 | 12.0 | 21.0 | 0.00 | 0.00 | 0.00 | 35 | 1018.6 |
| 20260906010851 | 83 | 111 | 11.0 | 19.0 | 0.00 | 0.00 | 0.00 | 35 | 1018.7 |
| 20260906010351 | 83 | 88 | 10.0 | 16.0 | 0.00 | 0.00 | 0.00 | 35 | 1018.7 |
| 20260906005617 | 83 | 107 | 10.0 | 18.0 | 0.00 | 0.00 | 0.00 | 34 | 1018.8 |
| 20260906005115 | 84 | 83 | 10.0 | 18.0 | 0.00 | 0.00 | 0.00 | 34 | 1018.8 |
| 20260906004846 | 84 | 101 | 11.0 | 17.0 | 0.00 | 0.00 | 0.00 | 34 | 1018.8 |
| 20260906004116 | 84 | 115 | 10.0 | 17.0 | 0.00 | 0.00 | 0.00 | 34 | 1018.8 |
| 20260906003614 | 84 | 115 | 9.0 | 15.0 | 0.00 | 0.00 | 0.00 | 34 | 1018.8 |
| 20260906003115 | 84 | 95 | 9.0 | 14.0 | 0.00 | 0.00 | 0.00 | 34 | 1018.8 |
| 20260906002607 | 85 | 109 | 10.0 | 14.0 | 0.00 | 0.00 | 0.00 | 34 | 1018.8 |
| 20260906002107 | 84 | 85 | 10.0 | 15.0 | 0.00 | 0.00 | 0.00 | 34 | 1018.8 |
| 20260906001607 | 84 | 75 | 10.0 | 15.0 | 0.00 | 0.00 | 0.00 | 35 | 1018.7 |
| 20260906001107 | 84 | 71 | 9.0 | 12.0 | 0.00 | 0.00 | 0.00 | 35 | 1018.8 |
| 20260906000608 | 85 | 59 | 8.0 | 11.0 | 0.00 | 0.00 | 0.00 | 34 | 1018.8 |
| 20260906000106 | 84 | 64 | 9.0 | 13.0 | 0.00 | 0.00 | 0.00 | 34 | 1018.7 |
| 20260905235601 | 85 | 49 | 9.0 | 13.0 | 0.00 | 0.00 | 0.00 | 34 | 1018.8 |
| 20260905235101 | 85 | 36 | 9.0 | 12.0 | 0.00 | 0.00 | 0.00 | 33 | 1018.8 |
| 20260905234603 | 85 | 50 | 8.0 | 12.0 | 0.00 | 0.00 | 0.00 | 33 | 1018.8 |
| 20260905234101 | 85 | 40 | 9.0 | 12.0 | 0.00 | 0.00 | 0.00 | 33 | 1018.8 |
| 20260905233601 | 85 | 38 | 10.0 | 15.0 | 0.00 | 0.00 | 0.00 | 33 | 1018.8 |
| 20260905233101 | 85 | 47 | 9.0 | 15.0 | 0.00 | 0.00 | 0.00 | 33 | 1018.7 |
| 20260905232555 | 85 | 42 | 8.0 | 13.0 | 0.00 | 0.00 | 0.00 | 32 | 1018.8 |
| 20260905232326 | 86 | 22 | 10.0 | 14.0 | 0.00 | 0.00 | 0.00 | 32 | 1018.7 |
| 20260905231555 | 86 | 15 | 10.0 | 14.0 | 0.00 | 0.00 | 0.00 | 31 | 1018.7 |
| 20260905231055 | 86 | 59 | 10.0 | 16.0 | 0.00 | 0.00 | 0.00 | 32 | 1018.7 |
| 20260905230555 | 86 | 16 | 10.0 | 16.0 | 0.00 | 0.00 | 0.00 | 33 | 1018.6 |
| 20260905230057 | 86 | 27 | 10.0 | 15.0 | 0.00 | 0.00 | 0.00 | 33 | 1018.4 |
| 20260905225549 | 87 | 32 | 10.0 | 15.0 | 0.00 | 0.00 | 0.00 | 32 | 1018.4 |
| 20260905225050 | 87 | 31 | 8.0 | 13.0 | 0.00 | 0.00 | 0.00 | 31 | 1018.6 |
| 20260905224549 | 87 | 27 | 9.0 | 16.0 | 0.00 | 0.00 | 0.00 | 31 | 1018.4 |
| 20260905224320 | 87 | 9 | 11.0 | 17.0 | 0.00 | 0.00 | 0.00 | 31 | 1018.4 |
| 20260905223549 | 87 | 28 | 11.0 | 17.0 | 0.00 | 0.00 | 0.00 | 31 | 1018.3 |
| 20260905223048 | 88 | 34 | 10.0 | 16.0 | 0.00 | 0.00 | 0.00 | 29 | 1018.3 |
| 20260905222543 | 89 | 5 | 10.0 | 16.0 | 0.00 | 0.00 | 0.00 | 29 | 1018.2 |
| 20260905222044 | 89 | 344 | 9.0 | 16.0 | 0.00 | 0.00 | 0.00 | 29 | 1018.2 |
| 20260905221545 | 89 | 5 | 8.0 | 13.0 | 0.00 | 0.00 | 0.00 | 29 | 1018.3 |
| 20260905221043 | 89 | 11 | 9.0 | 14.0 | 0.00 | 0.00 | 0.00 | 28 | 1018.2 |
| 20260905220543 | 88 | 15 | 11.0 | 18.0 | 0.00 | 0.00 | 0.00 | 29 | 1018.3 |
| 20260905220043 | 87 | 36 | 10.0 | 18.0 | 0.00 | 0.00 | 0.00 | 29 | 1018.4 |
| 20260905215539 | 88 | 34 | 10.0 | 14.0 | 0.00 | 0.00 | 0.00 | 28 | 1018.3 |
| 20260905215039 | 89 | 15 | 11.0 | 18.0 | 0.00 | 0.00 | 0.00 | 28 | 1018.2 |
| 20260905214539 | 89 | 46 | 11.0 | 18.0 | 0.00 | 0.00 | 0.00 | 28 | 1018.3 |
| 20260905214038 | 89 | 19 | 11.0 | 18.0 | 0.00 | 0.00 | 0.00 | 29 | 1018.4 |
| 20260905213537 | 89 | 349 | 10.0 | 16.0 | 0.00 | 0.00 | 0.00 | 29 | 1018.4 |
| 20260905213039 | 88 | 355 | 9.0 | 14.0 | 0.00 | 0.00 | 0.00 | 29 | 1018.7 |
| 20260905212532 | 88 | 342 | 9.0 | 13.0 | 0.00 | 0.00 | 0.00 | 30 | 1018.7 |
| 20260905212031 | 88 | 17 | 11.0 | 15.0 | 0.00 | 0.00 | 0.00 | 30 | 1018.7 |
| 20260905211531 | 87 | 22 | 12.0 | 18.0 | 0.00 | 0.00 | 0.00 | 30 | 1018.8 |
| 20260905211032 | 87 | 44 | 10.0 | 18.0 | 0.00 | 0.00 | 0.00 | 30 | 1018.8 |